Temp
-0 -1 1 2 2 4 5 5 6 7 10 10 10 10 10 10 10 9 9 8 8 8 7 5 8 7 7 6 6 6 6 5 4 3 3 2 2 3 1 2 1 1 1 0
-2 -3 -0 2 3 4 4 3 4 7 9 9 10 10 10 10 10 10 10 9 8 8 7 6 8 7 7 7 6 6 6 5 4 3 2 2 2 2 1 1 1 1 0 1
-2 -1 1 1 3 4 4 4 5 7 8 9 9 9 9 9 10 10 10 10 9 8 7 6 8 7 7 7 6 6 6 5 3 2 1 2 2 2 1 1 1 1 1 0
-2 -1 -2 -1 2 4 4 4 5 7 8 8 9 10 10 10 10 10 10 10 9 9 8 7 7 8 7 7 7 6 6 6 4 2 2 2 2 2 2 1 1 0 1 0
-2 -2 -2 -2 0 3 3 4 4 6 7 7 8 9 9 10 11 11 10 10 9 9 8 7 7 8 7 7 7 7 6 6 6 4 3 2 2 1 1 1 1 0 0 0
-1 -3 -2 -1 -1 -0 1 1 2 5 6 7 7 8 9 10 11 11 11 10 10 10 8 8 7 8 8 8 7 7 7 6 6 5 5 3 3 3 2 1 1 0 0 -0
-2 -2 -2 -1 -1 1 1 -0 3 4 5 6 7 8 9 9 10 11 10 10 10 10 8 8 7 8 8 8 8 7 7 7 7 6 5 4 3 3 3 2 2 1 0 -0
-2 -1 -1 -1 -0 -0 2 0 3 3 5 7 8 9 9 10 10 10 10 10 9 9 8 7 7 7 8 8 8 7 7 6 6 6 6 5 4 3 2 1 1 1 1 1
-0 -1 1 1 -0 -0 0 -1 2 5 4 5 8 9 10 9 9 9 9 9 9 9 8 8 7 7 8 8 8 7 7 7 6 6 6 6 6 6 4 3 2 1 1 1
-0 0 1 2 2 0 1 2 2 4 3 4 9 10 10 10 9 10 9 9 9 8 8 8 8 8 8 8 7 7 7 7 7 6 6 6 6 6 6 5 3 2 1 1
-1 -0 1 2 2 2 1 2 1 2 4 5 6 7 8 9 9 9 8 8 8 8 8 8 8 7 8 8 7 7 7 7 7 7 6 6 6 6 6 6 6 5 3 2
-2 0 1 1 2 1 1 1 2 2 4 5 6 7 6 7 7 7 8 7 7 7 7 7 7 6 6 7 7 7 7 7 7 7 6 6 6 6 6 6 5 5 5 5
-3 -0 1 1 1 1 1 1 1 1 -0 1 4 6 6 6 7 6 6 6 5 6 6 7 6 6 5 6 7 7 7 7 7 7 6 6 6 6 6 6 5 5 5 5
-4 -3 -1 1 1 -1 2 2 1 2 1 1 1 5 2 5 5 5 6 6 5 5 6 6 6 5 5 5 6 7 7 7 7 7 7 7 7 6 5 5 5 5 5 5
-4 -3 -2 -1 0 2 2 2 3 -0 -0 1 2 3 3 2 3 3 5 5 5 4 5 6 5 5 5 4 5 5 6 6 7 7 7 7 7 7 6 6 5 5 5 5
-4 -3 -3 -1 0 0 3 1 3 3 3 4 3 2 4 3 3 4 3 5 5 4 5 5 6 6 5 5 5 4 4 4 5 7 7 7 7 7 7 7 6 6 6 5
-5 -4 -4 -2 -2 -1 1 2 2 1 1 3 1 1 2 2 3 2 3 3 3 4 4 5 5 5 5 5 5 6 6 6 5 6 6 6 6 7 7 7 6 6 6 6
-5 -4 -4 -3 -3 -1 2 2 2 3 3 3 2 2 2 2 2 2 2 2 3 3 3 4 4 4 4 5 5 5 5 6 5 5 6 6 6 6 6 6 6 6 6 6
-5 -4 -5 -3 -2 -2 -0 1 2 3 2 2 0 2 2 2 1 1 -0 0 2 2 2 2 3 3 3 3 4 4 5 5 5 5 5 3 5 6 6 6 6 6 6 6
-4 -4 -4 -3 -3 -1 2 2 2 2 0 0 1 0 0 1 0 -0 -1 0 1 1 1 1 1 2 2 2 2 2 3 4 4 5 5 5 5 5 6 6 6 6 6 6
-4 -4 -4 -4 -3 -1 1 -0 1 1 -1 -2 -1 -1 -1 -0 -0 -2 -2 -0 1 1 1 1 2 1 1 2 2 2 2 2 3 4 5 4 4 4 4 5 5 5 6 6
-4 -4 -4 -4 -2 -1 -1 -1 -0 -2 -2 -2 -2 -2 -1 -1 -0 -0 -0 -0 -0 0 1 1 1 1 1 1 1 1 2 2 2 2 3 4 4 4 3 4 4 4 5 4
-4 -3 -3 -3 -2 -2 -1 -1 -1 -2 -2 -2 -2 -2 -2 -2 -1 -1 -1 -1 -1 -1 -1 -1 -0 0 0 1 1 0 0 1 2 2 2 3 3 3 3 3 3 3 4 2
-3 -3 -2 -2 -2 -2 -3 -3 -3 -2 -3 -3 -3 -3 -3 -3 -2 -2 -2 -2 -2 -1 -1 -1 -1 -1 -1 -0 -1 -1 -1 -0 -0 0 0 1 1 2 2 2 2 2 2 1
-4 -3 -3 -3 -3 -3 -4 -4 -4 -3 -3 -3 -3 -3 -3 -3 -2 -2 -2 -2 -2 -2 -2 -2 -2 -2 -2 -2 -1 -2 -2 -2 -2 -1 -0 -1 0 1 1 0 0 -0 0 -0
-4 -4 -4 -4 -3 -4 -4 -4 -4 -4 -4 -4 -4 -3 -3 -3 -3 -3 -3 -3 -3 -3 -3 -2 -2 -2 -2 -2 -2 -3 -2 -2 -2 -2 -3 -2 -2 -4 -3 -2 -2 -1 -1 -1
Height
3040 3040 3040 3048 3051 3055 3056 3053 3052 3050 3051 3050 3050 3054 3055 3057 3058 3057 3059 3061 3064 3062 3062 3060 3058 3059 3058 3058 3057 3057 3054 3053 3053 3054 3055 3058 3059 3058 3061 3066 3073 3079 3084 3090
3035 3031 3040 3048 3049 3052 3052 3050 3048 3047 3047 3047 3047 3049 3050 3051 3052 3053 3054 3054 3057 3059 3058 3056 3055 3056 3055 3055 3055 3055 3053 3051 3050 3050 3051 3054 3056 3057 3059 3064 3070 3077 3083 3088
3030 3033 3040 3039 3045 3047 3047 3047 3047 3047 3045 3044 3045 3046 3045 3045 3046 3048 3050 3050 3054 3053 3053 3052 3052 3053 3053 3052 3053 3053 3051 3048 3046 3047 3049 3053 3054 3057 3060 3065 3070 3075 3080 3084
3026 3027 3034 3034 3035 3042 3041 3046 3046 3046 3045 3042 3042 3038 3037 3037 3037 3040 3043 3045 3047 3051 3050 3048 3048 3050 3050 3049 3050 3051 3050 3047 3044 3044 3047 3051 3054 3057 3061 3065 3070 3074 3077 3081
3024 3024 3027 3030 3030 3038 3039 3043 3043 3043 3041 3040 3037 3037 3034 3033 3032 3032 3034 3038 3040 3043 3047 3045 3045 3047 3048 3047 3047 3048 3048 3046 3044 3042 3045 3049 3053 3056 3060 3064 3067 3069 3073 3077
3022 3024 3025 3028 3030 3033 3039 3040 3042 3040 3038 3031 3033 3034 3029 3029 3027 3027 3031 3034 3037 3038 3041 3042 3041 3043 3045 3045 3045 3045 3047 3046 3045 3044 3046 3048 3051 3054 3056 3059 3063 3066 3071 3075
3019 3017 3020 3026 3028 3031 3036 3039 3039 3035 3029 3024 3028 3027 3024 3022 3025 3025 3028 3031 3033 3035 3036 3039 3039 3039 3041 3043 3044 3045 3046 3047 3046 3046 3047 3048 3050 3052 3055 3058 3061 3064 3068 3072
3016 3015 3015 3018 3021 3024 3027 3031 3029 3029 3023 3020 3021 3016 3016 3017 3021 3023 3025 3028 3031 3032 3033 3036 3037 3036 3038 3040 3042 3043 3044 3046 3047 3047 3048 3049 3050 3051 3052 3055 3059 3060 3065 3069
3016 3013 3013 3015 3016 3020 3022 3022 3019 3023 3027 3024 3011 3012 3014 3016 3018 3021 3023 3026 3028 3029 3029 3031 3034 3034 3035 3037 3040 3042 3043 3045 3045 3047 3048 3049 3051 3051 3051 3052 3054 3057 3061 3064
3013 3012 3009 3011 3012 3014 3015 3020 3023 3022 3024 3021 3004 3003 3010 3011 3016 3019 3021 3024 3025 3026 3028 3026 3029 3030 3033 3034 3037 3039 3041 3042 3044 3045 3046 3047 3048 3050 3051 3051 3051 3052 3056 3059
3009 3011 3006 3006 3007 3009 3013 3012 3018 3019 3018 3013 3011 3010 3012 3011 3014 3016 3018 3023 3024 3023 3024 3026 3027 3027 3030 3032 3034 3037 3039 3040 3041 3043 3044 3045 3046 3047 3048 3050 3051 3051 3052 3054
3004 3003 3003 3003 3004 3003 3006 3006 3012 3013 3012 3011 3011 3010 3011 3013 3013 3015 3021 3019 3021 3023 3023 3025 3027 3027 3026 3029 3031 3034 3036 3037 3039 3040 3042 3043 3043 3044 3046 3047 3048 3050 3051 3052
3001 3000 3001 2999 3000 3000 3001 3004 3006 3009 3010 3008 3008 3007 3010 3012 3014 3014 3015 3016 3019 3021 3023 3024 3025 3026 3026 3027 3029 3031 3033 3035 3036 3037 3038 3039 3040 3041 3043 3044 3045 3046 3048 3050
3000 2997 2997 2996 2997 2997 2996 2998 3001 3003 3005 3007 3007 3007 3008 3010 3011 3014 3014 3016 3018 3020 3019 3019 3021 3026 3027 3026 3027 3028 3030 3031 3032 3032 3033 3034 3036 3037 3038 3039 3040 3041 3044 3045
2998 2996 2994 2990 2992 2994 2994 2994 2996 2997 3000 3002 3003 3003 3007 3008 3011 3013 3014 3013 3013 3015 3018 3020 3020 3020 3020 3024 3026 3026 3027 3027 3028 3029 3030 3030 3031 3032 3032 3033 3034 3035 3036 3038
2995 2994 2992 2989 2990 2990 2989 2991 2993 2992 2996 2999 3002 3004 3004 3004 3010 3012 3009 3007 3009 3012 3017 3016 3017 3018 3018 3019 3020 3019 3023 3022 3022 3024 3025 3025 3026 3026 3027 3027 3027 3028 3030 3031
2994 2995 2994 2989 2988 2987 2986 2987 2989 2992 2992 2996 2998 2999 2999 3003 3007 3008 3005 3005 3007 3008 3009 3009 3012 3013 3014 3016 3015 3015 3016 3016 3016 3017 3019 3019 3018 3018 3020 3021 3021 3022 3022 3022
2992 2994 2994 2991 2989 2987 2983 2984 2985 2988 2989 2993 2995 2997 2998 3000 3004 3005 3003 3003 3004 3004 3004 3004 3003 3004 3006 3006 3007 3009 3011 3011 3009 3010 3010 3011 3010 3010 3011 3010 3012 3014 3014 3014
2987 2992 2993 2991 2988 2985 2982 2981 2984 2987 2991 2989 2992 2996 2998 3000 3003 3001 2999 2999 3000 2999 3000 2999 2997 2998 2998 2998 2998 3000 3001 3002 3001 2999 2999 3001 3000 3000 3000 3000 3002 3003 3002 3003
2978 2984 2989 2990 2987 2982 2978 2981 2982 2983 2987 2987 2990 2993 2995 2999 2997 2996 2997 2997 2998 2995 2995 2994 2994 2992 2991 2990 2990 2990 2990 2991 2992 2992 2993 2992 2991 2991 2991 2990 2991 2990 2990 2991
2970 2976 2978 2984 2985 2979 2978 2979 2979 2983 2989 2983 2986 2988 2992 2993 2994 2993 2992 2995 2994 2992 2992 2990 2988 2987 2986 2985 2983 2982 2981 2980 2979 2979 2980 2981 2982 2981 2980 2980 2979 2979 2977 2977
2963 2970 2971 2979 2979 2980 2977 2978 2979 2978 2979 2982 2985 2988 2990 2990 2992 2991 2990 2992 2990 2988 2987 2987 2984 2982 2980 2977 2975 2973 2971 2970 2969 2968 2967 2967 2969 2969 2969 2969 2968 2969 2968 2967
2960 2961 2966 2970 2971 2973 2973 2974 2974 2974 2978 2981 2984 2985 2986 2987 2988 2988 2986 2986 2986 2985 2984 2982 2979 2978 2975 2972 2969 2966 2963 2960 2959 2957 2956 2955 2955 2956 2956 2957 2957 2958 2958 2956
2957 2959 2962 2965 2966 2968 2968 2968 2970 2972 2975 2978 2980 2982 2983 2983 2983 2983 2982 2983 2981 2980 2978 2976 2974 2971 2968 2965 2962 2959 2956 2953 2950 2948 2946 2945 2943 2942 2943 2943 2944 2944 2945 2946
2950 2956 2957 2961 2962 2964 2963 2965 2968 2968 2973 2974 2975 2976 2978 2977 2977 2977 2977 2975 2974 2974 2971 2969 2967 2964 2961 2958 2955 2953 2951 2948 2944 2940 2939 2938 2935 2932 2931 2931 2932 2932 2930 2932
2952 2952 2953 2957 2958 2950 2954 2964 2964 2968 2970 2971 2972 2971 2971 2972 2971 2970 2969 2968 2966 2964 2962 2959 2957 2955 2953 2951 2948 2946 2944 2942 2939 2936 2933 2931 2931 2926 2923 2920 2920 2916 2918 2917
Wind_Speed
22 27 29 26 23 25 23 27 28 30 21 21 24 22 22 22 19 21 15 15 17 18 19 21 15 14 13 8 9 9 13 15 14 17 19 18 11 8 17 19 35 32 36 37
23 30 26 22 21 24 25 27 28 25 18 11 14 19 20 21 21 20 20 15 16 18 20 22 16 13 13 12 9 11 13 16 16 18 18 14 11 7 13 31 35 27 36 34
21 20 16 22 27 28 29 29 27 27 20 17 15 22 24 24 23 22 22 18 15 18 20 25 17 14 13 13 9 10 13 16 14 19 19 15 16 9 23 31 33 24 26 33
21 27 26 24 24 26 32 26 27 27 26 23 20 18 19 22 23 24 24 23 20 18 18 24 21 13 12 12 9 9 11 13 10 14 20 19 17 11 14 21 28 32 25 28
10 13 29 18 19 24 25 19 22 24 26 26 27 21 19 14 17 24 22 23 22 22 22 23 24 14 13 11 10 9 7 10 6 9 19 25 22 16 17 16 20 24 29 28
18 13 16 17 19 21 14 23 24 24 24 20 28 26 22 22 16 17 15 15 16 24 21 21 25 18 14 10 8 9 5 6 3 3 8 16 25 23 22 23 22 21 29 26
15 26 22 18 18 22 23 17 12 10 16 11 23 22 24 18 8 4 9 9 11 16 20 19 25 22 16 11 8 8 6 4 2 1 7 11 15 21 20 20 26 26 24 26
3 7 25 15 20 19 24 29 14 6 4 15 28 13 28 20 16 8 9 8 11 15 16 17 24 24 16 13 9 8 7 5 3 1 2 7 13 18 17 20 25 27 24 23
5 7 13 18 19 22 24 36 34 27 20 11 14 27 14 8 8 7 7 8 8 11 16 15 22 24 17 16 11 8 8 7 6 4 4 3 6 9 12 15 23 26 29 24
13 17 14 18 15 21 23 21 20 16 4 6 5 14 7 14 13 10 7 6 5 10 9 20 17 20 17 18 15 11 9 8 6 6 6 6 6 7 8 11 15 18 30 28
14 18 12 10 24 22 21 28 21 16 21 4 1 6 11 7 11 11 11 3 1 1 5 13 18 19 19 20 19 14 11 8 8 8 10 9 10 10 9 8 8 11 19 28
8 10 18 18 12 20 23 27 26 13 17 27 21 2 3 9 12 13 6 9 9 8 1 7 13 16 21 19 21 17 17 15 15 15 15 15 14 15 14 11 10 12 11 15
4 8 17 10 17 20 21 25 31 24 10 10 7 9 7 7 10 10 6 7 8 6 11 3 6 10 18 16 21 21 20 20 22 22 20 20 20 20 18 17 17 17 17 17
8 11 12 14 10 11 15 22 25 28 17 13 14 8 9 16 4 10 9 7 5 10 4 9 8 4 9 10 7 12 16 18 22 25 22 20 19 20 23 22 23 24 23 24
13 8 13 18 17 17 23 18 20 20 17 8 10 19 12 12 8 9 14 17 18 6 7 6 8 7 11 8 13 15 14 15 15 22 24 23 21 18 19 23 26 27 29 30
6 9 13 15 13 13 16 15 21 20 20 16 12 16 10 8 6 8 3 15 16 20 23 18 17 14 15 12 12 13 18 23 20 19 19 27 28 27 23 23 24 28 30 32
4 5 7 6 9 8 15 16 18 17 18 14 15 16 14 9 8 2 6 9 12 15 19 24 19 21 28 26 25 25 23 21 25 25 24 26 29 33 31 31 30 28 30 33
16 10 9 8 6 4 0 7 18 12 17 8 12 9 9 5 5 3 6 9 13 15 17 17 21 24 24 26 26 24 25 28 27 28 31 32 32 34 35 34 33 32 34 36
24 19 10 6 7 5 2 5 5 21 11 20 7 11 8 5 3 6 3 8 16 20 17 19 24 25 24 25 29 31 31 30 28 28 26 27 30 32 35 39 37 37 38 39
26 26 25 11 6 3 2 12 10 10 8 8 11 6 4 4 5 7 5 10 15 21 23 23 25 26 29 31 30 30 33 33 37 38 37 36 35 36 36 37 41 43 43 46
32 31 31 23 12 7 8 5 9 13 8 9 10 10 10 9 9 6 11 17 21 20 19 22 25 26 27 27 28 31 33 31 32 42 45 41 39 42 44 38 36 37 43 47
30 23 22 24 15 16 3 4 4 11 13 13 12 6 5 8 10 16 19 16 17 19 21 23 26 26 28 30 32 32 31 35 36 35 39 41 43 42 41 44 44 43 39 36
18 32 17 19 25 7 14 14 17 16 12 8 4 5 6 8 11 14 17 17 19 20 22 24 26 29 32 34 35 36 36 35 33 39 37 35 40 44 45 45 44 43 46 40
19 18 23 11 12 19 11 13 17 18 12 7 5 7 7 11 14 16 19 19 21 22 23 24 27 28 29 32 32 34 30 29 33 35 35 31 33 38 42 44 44 43 43 45
8 17 22 14 11 15 17 16 8 13 6 9 12 15 15 17 19 22 23 24 25 25 26 28 29 29 28 26 27 26 29 27 29 30 35 34 29 28 29 32 35 39 41 42
6 11 11 10 1 20 15 8 4 4 8 13 16 21 23 23 24 24 23 24 25 26 28 28 29 29 29 31 30 28 27 28 27 26 23 22 26 12 9 13 17 24 28 32
Wind_Direction
236 225 223 228 227 234 242 260 275 270 244 237 225 239 246 248 240 242 235 245 238 248 253 256 287 293 293 290 302 307 304 297 274 252 243 238 245 250 201 195 206 199 201 201
230 227 220 233 231 235 244 259 267 265 248 250 243 245 252 253 248 246 239 234 236 234 243 255 286 281 295 295 289 300 306 298 283 251 241 228 231 241 193 205 205 215 204 210
240 221 213 239 234 235 238 248 257 268 272 262 237 261 257 251 248 240 238 242 236 236 235 250 284 274 289 297 289 296 310 308 288 240 230 220 214 195 197 201 210 208 214 215
256 237 235 228 244 229 239 245 254 265 265 264 245 259 269 247 238 237 236 235 237 228 237 250 271 277 283 292 296 292 311 319 296 220 212 214 213 214 198 211 214 212 212 218
240 217 207 224 227 239 245 253 256 266 257 260 259 266 262 268 265 233 230 228 236 231 221 240 261 281 274 286 293 295 314 324 314 222 207 208 218 222 205 204 211 225 223 232
257 252 219 253 246 242 246 247 259 259 258 247 247 254 260 255 269 235 215 222 239 235 220 229 252 264 271 275 275 286 305 314 317 262 223 217 220 222 214 218 219 217 219 228
279 261 243 243 254 224 228 225 250 242 243 244 240 242 241 254 247 173 181 221 229 225 215 220 236 254 267 265 271 263 269 285 321 230 228 227 222 227 226 229 226 231 221 219
267 297 228 234 230 210 213 223 227 197 243 241 231 236 243 244 229 236 226 224 211 221 222 224 230 248 257 251 262 262 258 246 244 246 211 221 229 236 248 245 230 230 228 237
228 261 229 245 236 212 212 218 229 264 284 286 258 213 216 174 178 202 213 211 214 225 244 249 222 242 249 247 249 250 252 244 239 228 218 237 248 254 257 251 238 240 229 241
250 271 265 243 231 223 227 222 240 239 242 215 287 173 206 216 203 187 161 187 223 238 239 244 259 254 246 241 240 238 244 254 237 244 250 238 238 252 258 259 244 238 233 233
233 244 257 257 216 216 231 235 230 239 226 190 183 247 167 176 148 141 127 103 6 341 222 249 242 262 252 237 236 238 238 239 261 266 252 256 258 254 251 256 260 252 229 228
246 254 246 252 246 223 234 237 231 242 209 243 255 237 175 182 143 122 100 109 85 45 131 213 241 232 246 239 233 238 241 249 254 263 271 263 257 258 256 252 239 230 234 233
332 231 250 267 271 244 239 229 228 239 258 244 268 225 184 176 171 149 135 126 97 69 45 11 232 221 245 257 237 240 250 258 266 272 273 272 268 265 266 259 248 239 234 232
268 252 259 252 268 278 234 223 228 234 227 229 234 219 193 212 231 294 239 200 41 357 290 104 136 189 238 262 262 253 255 259 262 265 268 271 270 270 265 264 259 251 247 242
301 277 293 259 256 259 244 241 214 218 220 211 248 249 252 254 252 249 261 249 248 300 250 184 172 167 191 231 300 301 285 277 277 262 259 265 269 267 264 261 262 261 257 256
243 272 314 284 257 267 256 236 225 209 219 236 221 242 243 216 150 199 208 233 228 245 262 259 230 221 203 204 216 229 270 293 287 274 272 263 263 263 261 265 267 265 266 263
285 303 312 296 300 271 246 223 211 225 229 231 226 244 231 202 175 64 259 267 266 270 269 276 272 247 246 247 243 252 260 260 276 276 277 277 270 262 261 261 262 266 268 267
259 258 290 283 306 234 351 220 231 232 239 261 264 226 162 132 109 293 252 273 278 279 278 279 280 277 268 260 264 266 263 262 269 271 280 282 278 272 261 257 257 261 264 265
234 233 242 259 252 286 246 208 211 207 195 219 198 145 141 165 147 176 123 263 270 275 284 293 287 291 285 280 272 267 265 260 254 255 251 266 277 269 262 258 255 258 261 263
214 214 211 240 251 255 196 219 206 205 168 161 156 129 131 119 90 333 342 266 282 288 292 300 300 299 296 294 288 286 276 276 271 264 263 264 268 274 266 261 263 263 263 266
200 205 210 221 243 255 257 186 179 201 162 147 167 174 183 163 188 251 280 301 296 295 296 296 299 303 308 308 307 296 286 285 281 271 263 262 264 261 271 273 273 273 268 264
193 198 202 214 226 240 240 204 195 160 167 190 206 204 207 224 236 256 274 278 287 293 297 298 298 301 305 311 314 309 301 288 288 288 267 259 261 260 257 265 272 274 272 275
212 204 193 202 215 203 213 201 201 211 200 182 218 250 264 262 263 271 278 287 292 294 295 296 298 301 302 304 306 308 304 303 293 291 285 269 260 257 255 257 258 262 268 263
202 201 213 208 205 213 202 185 198 206 208 234 277 273 266 272 274 279 285 291 290 294 298 299 302 304 302 296 298 304 307 304 295 292 288 289 274 260 253 251 252 252 262 262
245 196 205 210 198 182 167 171 171 210 240 278 284 283 282 287 291 290 294 294 293 294 296 299 299 298 300 300 302 290 297 306 306 290 276 284 269 254 252 256 255 252 250 250
211 201 208 204 70 148 135 150 201 282 286 283 286 287 286 293 296 296 295 296 296 300 304 300 294 292 293 292 303 298 300 300 304 310 314 303 292 316 271 256 255 234 239 243